Showing default

YAOGAN-30 Z, 48425

Orbit data source: Space-Track

YAOGAN-30 Z, 48425 is a payload satellite owned by PLA SSF (CN) in LEO that was launched on Thu, 06 May 2021 UTC via a CHANG ZHENG 2C launch vehicle from the Xichang Space Center, China (XSC). Payload-class satellites include a variety of spacecraft equipped with specific instruments for various scientific and technological missions. These include communications satellites like Starlink; space stations such as the ISS; scientific satellites like the Hubble; Earth observation satellites from companies like Planet Labs, Umbra, and HawkEye 360; GPS; miniature CubeSats for education and research; and military/defense satellites.

Loading next visibility...
Identifier
48425, 2021-039C
Orbit
LEO
Country
Flag of CNCN / PRC
Related business
Manufacturer
SECM
Mission
Operational Defense Sigint
Bus & Motor
Unknown
Mass
~500 kg wet, ~500 kg dry
Launch date (UTC)
2021-05-06 (5 years ago)
Launch vehicle
CHANG ZHENG 2C
Launch site
Xichang Space Center, China (XSC)
Object type
Payload
Rocket body
Debris
Shape & HBR
Box + 2 Pan, 0.5 m
Radar Cross Section
0.446 m², Large (>1 m²)

Expand to show TLE details & history
Last TLE update: 21 hours ago

TLE from 21 hours ago
0 YAOGAN-30 Z
1 48425U 21039C   26172.57032508  .00002041  00000-0  15177-3 0  9997
2 48425  34.9965   4.0130 0000828 145.4421 214.6342 15.02748629280217
Epoch: 2026-06-21T13:41Z
TLE epoch observation values (Epoch: 2026-06-21T13:41:16.086Z)
Latitude
0.00002°
Longitude
-111.0727°
Altitude
557.814 km
Speed
7.585 km/s
True Right ascension
00h 16m 03s
True Declination
0° 00' 00"
Sunlit
Object was in daylight at epoch
Visualization orbit readout
Latitude
Unknown
Longitude
Unknown
Altitude
Unknown
Speed
Unknown
Apparent Right ascension
Unknown
Apparent Declination
Unknown
Sunlit
N/A
Visualization observer readout
Local Sidereal Time
21:35:25
Azimuth
Unknown
Elevation
Unknown
Doppler factor
Unknown
Orbital elements
Apogee altitude
562.222 km
Perigee altitude
561.072 km
Semi-major axis
6,939.784 km
Eccentricity
0.00008
Inclination
34.9965°
RAAN
4.013°
Arg. of periapsis
145.4421°
True anomaly
214.62881°
Mean anomaly
214.6342°
Eccentric anomaly
214.6315°
Mean motion
3.75426 °/min
Orbital period
95.89 mins
BSTAR
0.00015177
Loading maneuver chart data...
Computing Atmospheric mass density...
Loading historical data...
Loading historical data...
Loading historical data...
Loading historical data...
Loading historical data...
Loading historical data...
Loading historical data...
Other satellites on launch #39 in the year 2021 (2021-05-06 UTC)

Documentation

Showing up to 5 results
|